When you browse on this site, cookies collect data to enhance your experience and personalize the content and advertising you see.
Visit our Privacy Policy to learn more. By continuing to use the site, you agree to this use of cookies and data.
  • In Spain
  • List of Countries
  • For 7 days
  • Water Temperature
  • Satellite Maps
  • Weather Map
  • Weather Widgets
  • user-avatar
    Login

    Hourly Weather Patna

    Today, 17 July, Wednesday

    Time Temperature Precipitation Wind Pressure Humidity
    00:00 +33°C° 0 mm 1 mps 746 mmHg 62%
    01:00 +33°C° 0 mm 1 mps 745 mmHg 63%
    02:00 +32°C° 0 mm 1 mps 745 mmHg 64%
    03:00 +32°C° 0 mm 1 mps 744 mmHg 65%
    04:00 +32°C° 0 mm 1 mps 744 mmHg 67%
    05:00 +32°C° 0 mm 1 mps 745 mmHg 68%
    06:00 +32°C° 0 mm 1 mps 745 mmHg 69%
    07:00 +33°C° 0 mm 1 mps 745 mmHg 64%
    08:00 +34°C° 0 mm 1 mps 745 mmHg 59%
    09:00 +33°C° 0 mm 0 mps 745 mmHg 53%
    10:00 +36°C° 0 mm 1 mps 745 mmHg 49%
    11:00 +38°C° 0 mm 2 mps 746 mmHg 46%
    12:00 +39°C° 0 mm 2 mps 746 mmHg 42%
    13:00 +39°C° 0 mm 2 mps 745 mmHg 41%
    14:00 +40°C° 0 mm 3 mps 744 mmHg 39%
    15:00 +40°C° 0 mm 3 mps 744 mmHg 38%
    16:00 +40°C° 0 mm 3 mps 744 mmHg 39%
    17:00 +40°C° 0 mm 3 mps 744 mmHg 40%
    18:00 +40°C° 0 mm 3 mps 743 mmHg 40%
    19:00 +39°C° 0 mm 3 mps 744 mmHg 44%
    20:00 +38°C° 0 mm 3 mps 744 mmHg 48%
    21:00 +37°C° 0 mm 2 mps 744 mmHg 51%
    22:00 +37°C° 0 mm 2 mps 744 mmHg 53%
    23:00 +36°C° 0 mm 2 mps 745 mmHg 55%

    Tomorrow, 18 July, Thursday

    Time Temperature Precipitation Wind Pressure Humidity
    00:00 +35°C° 0 mm 1 mps 745 mmHg 57%
    01:00 +35°C° 0 mm 1 mps 744 mmHg 58%
    02:00 +34°C° 0 mm 1 mps 744 mmHg 60%
    03:00 +34°C° 0 mm 1 mps 744 mmHg 61%
    04:00 +34°C° 0 mm 1 mps 744 mmHg 62%
    05:00 +34°C° 0 mm 1 mps 744 mmHg 63%
    06:00 +33°C° 0 mm 1 mps 744 mmHg 63%
    07:00 +35°C° 0 mm 1 mps 745 mmHg 58%
    08:00 +36°C° 0 mm 1 mps 745 mmHg 53%
    09:00 +37°C° 0 mm 1 mps 745 mmHg 49%
    10:00 +39°C° 0 mm 1 mps 745 mmHg 45%
    11:00 +40°C° 0 mm 1 mps 745 mmHg 41%
    12:00 +41°C° 0 mm 1 mps 745 mmHg 37%
    13:00 +41°C° 0 mm 1 mps 744 mmHg 37%
    14:00 +41°C° 0 mm 1 mps 744 mmHg 37%
    15:00 +41°C° 0 mm 1 mps 743 mmHg 37%
    16:00 +41°C° 0 mm 2 mps 743 mmHg 38%
    17:00 +40°C° 0 mm 2 mps 743 mmHg 39%
    18:00 +40°C° 0 mm 2 mps 742 mmHg 41%
    19:00 +39°C° 0 mm 2 mps 743 mmHg 43%
    20:00 +39°C° 0 mm 2 mps 743 mmHg 46%
    21:00 +37°C° 0 mm 1 mps 743 mmHg 49%
    22:00 +37°C° 0 mm 1 mps 743 mmHg 51%
    23:00 +36°C° 0 mm 1 mps 743 mmHg 53%

    Day after tomorrow, 19 July, Friday

    Time Temperature Precipitation Wind Pressure Humidity
    00:00 +36°C° 0 mm 1 mps 744 mmHg 54%
    01:00 +36°C° 0 mm 2 mps 743 mmHg 56%
    02:00 +36°C° 0 mm 2 mps 743 mmHg 57%
    03:00 +36°C° 0 mm 2 mps 743 mmHg 58%
    04:00 +35°C° 0 mm 2 mps 743 mmHg 59%
    05:00 +34°C° 0 mm 1 mps 743 mmHg 60%
    06:00 +34°C° 0 mm 1 mps 744 mmHg 61%
    07:00 +35°C° 0 mm 1 mps 744 mmHg 57%
    08:00 +36°C° 0 mm 1 mps 744 mmHg 52%
    09:00 +37°C° 0 mm 1 mps 745 mmHg 48%
    10:00 +40°C° 0 mm 1 mps 745 mmHg 44%
    11:00 +41°C° 0 mm 1 mps 745 mmHg 40%
    12:00 +39°C° 0 mm 0 mps 745 mmHg 37%
    13:00 +39°C° 0 mm 0 mps 744 mmHg 36%
    14:00 +39°C° 0 mm 0 mps 744 mmHg 36%
    15:00 +42°C° 0 mm 1 mps 743 mmHg 36%
    16:00 +42°C° 0 mm 1 mps 743 mmHg 37%
    17:00 +41°C° 0 mm 1 mps 743 mmHg 39%
    18:00 +41°C° 0 mm 1 mps 742 mmHg 40%
    19:00 +40°C° 0 mm 1 mps 742 mmHg 42%
    20:00 +40°C° 0 mm 1 mps 743 mmHg 44%
    21:00 +39°C° 0 mm 1 mps 743 mmHg 46%
    22:00 +39°C° 0 mm 1 mps 743 mmHg 48%
    23:00 +38°C° 0 mm 2 mps 743 mmHg 49%

    20 July, Saturday

    Time Temperature Precipitation Wind Pressure Humidity
    00:00 +38°C° 0 mm 2 mps 743 mmHg 51%
    01:00 +37°C° 0 mm 2 mps 743 mmHg 52%
    02:00 +37°C° 0 mm 2 mps 743 mmHg 53%
    03:00 +36°C° 0 mm 2 mps 742 mmHg 55%
    04:00 +36°C° 0 mm 2 mps 743 mmHg 56%
    05:00 +36°C° 0 mm 2 mps 743 mmHg 57%
    06:00 +36°C° 0 mm 2 mps 743 mmHg 58%
    07:00 +37°C° 0 mm 2 mps 744 mmHg 53%
    08:00 +38°C° 0 mm 2 mps 744 mmHg 49%
    09:00 +40°C° 0 mm 3 mps 745 mmHg 44%
    10:00 +41°C° 0 mm 2 mps 745 mmHg 41%
    11:00 +42°C° 0 mm 2 mps 744 mmHg 37%
    12:00 +43°C° 0 mm 1 mps 744 mmHg 34%
    13:00 +43°C° 0 mm 1 mps 744 mmHg 34%
    14:00 +43°C° 0 mm 1 mps 743 mmHg 33%
    15:00 +43°C° 0 mm 1 mps 742 mmHg 33%
    16:00 +42°C° 0 mm 1 mps 742 mmHg 35%
    17:00 +42°C° 0 mm 1 mps 742 mmHg 36%
    18:00 +41°C° 0 mm 2 mps 741 mmHg 38%
    19:00 +41°C° 0 mm 2 mps 742 mmHg 40%
    20:00 +40°C° 0 mm 2 mps 742 mmHg 41%
    21:00 +40°C° 0 mm 2 mps 742 mmHg 43%
    22:00 +39°C° 0 mm 1 mps 742 mmHg 44%
    23:00 +39°C° 0 mm 1 mps 742 mmHg 46%

    21 July, Sunday

    Time Temperature Precipitation Wind Pressure Humidity
    00:00 +39°C° 0 mm 1 mps 742 mmHg 47%
    01:00 +37°C° 0 mm 1 mps 742 mmHg 49%
    02:00 +37°C° 0 mm 1 mps 742 mmHg 51%
    03:00 +36°C° 0 mm 1 mps 741 mmHg 52%
    04:00 +36°C° 0 mm 1 mps 741 mmHg 54%
    05:00 +37°C° 0 mm 2 mps 742 mmHg 56%
    06:00 +36°C° 0 mm 2 mps 742 mmHg 58%
    07:00 +37°C° 0 mm 2 mps 742 mmHg 54%
    08:00 +38°C° 0 mm 3 mps 743 mmHg 50%
    09:00 +40°C° 0 mm 4 mps 743 mmHg 46%
    10:00 +42°C° 0 mm 3 mps 743 mmHg 42%
    11:00 +43°C° 0 mm 3 mps 743 mmHg 38%
    12:00 +44°C° 0 mm 3 mps 743 mmHg 35%
    13:00 +44°C° 0 mm 3 mps 742 mmHg 34%
    14:00 +45°C° 0 mm 2 mps 741 mmHg 33%
    15:00 +45°C° 0 mm 2 mps 740 mmHg 31%
    16:00 +43°C° 0 mm 2 mps 740 mmHg 34%
    17:00 +42°C° 0 mm 2 mps 740 mmHg 36%
    18:00 +42°C° 0 mm 2 mps 740 mmHg 38%
    19:00 +41°C° 0 mm 2 mps 740 mmHg 42%
    20:00 +39°C° 0 mm 3 mps 741 mmHg 47%
    21:00 +38°C° 0 mm 3 mps 741 mmHg 51%
    22:00 +38°C° 0 mm 4 mps 741 mmHg 54%
    23:00 +37°C° 0 mm 4 mps 742 mmHg 57%

    22 July, Monday

    Time Temperature Precipitation Wind Pressure Humidity
    00:00 +36°C° 0 mm 5 mps 742 mmHg 59%
    01:00 +36°C° 0 mm 4 mps 741 mmHg 59%
    02:00 +36°C° 0 mm 3 mps 741 mmHg 59%
    03:00 +36°C° 0 mm 3 mps 741 mmHg 59%
    04:00 +35°C° 0.3 mm 3 mps 741 mmHg 61%
    05:00 +35°C° 0.3 mm 3 mps 741 mmHg 63%
    06:00 +34°C° 0.3 mm 3 mps 741 mmHg 66%
    07:00 +35°C° 0.1 mm 2 mps 741 mmHg 61%
    08:00 +37°C° 0.1 mm 2 mps 742 mmHg 56%
    09:00 +38°C° 0.1 mm 2 mps 742 mmHg 51%
    10:00 +39°C° 0 mm 2 mps 742 mmHg 49%
    11:00 +39°C° 0 mm 2 mps 742 mmHg 48%
    12:00 +40°C° 0 mm 2 mps 742 mmHg 46%
    13:00 +40°C° 0 mm 2 mps 741 mmHg 44%
    14:00 +41°C° 0 mm 2 mps 740 mmHg 42%
    15:00 +42°C° 0 mm 1 mps 740 mmHg 40%
    16:00 +40°C° 0.9 mm 3 mps 740 mmHg 50%
    17:00 +37°C° 0.9 mm 5 mps 739 mmHg 59%
    18:00 +35°C° 0.9 mm 7 mps 739 mmHg 69%
    19:00 +34°C° 1.7 mm 7 mps 740 mmHg 72%
    20:00 +33°C° 1.7 mm 7 mps 740 mmHg 75%
    21:00 +33°C° 1.7 mm 7 mps 741 mmHg 78%
    22:00 +33°C° 0.5 mm 6 mps 741 mmHg 77%
    23:00 +33°C° 0.5 mm 5 mps 741 mmHg 75%
    Show more